Time,TemperatureF,DewpointF,PressureIn,WindDirection,WindDirectionDegrees,WindSpeedMPH,WindSpeedGustMPH,Humidity,HourlyPrecipIn,Conditions,Clouds,dailyrainin,SoftwareType,DateUTC
2013-02-28 00:00:00,46.4,10.4,30.15,ESE,113,4.0,4.7,23,0.00,,,0.00,WUHU216HW,2013-02-28 07:00:00,
2013-02-28 00:05:00,46.1,10.0,30.15,ESE,113,3.1,4.7,23,0.00,,,0.00,WUHU216HW,2013-02-28 07:05:00,
2013-02-28 00:10:00,46.1,10.0,30.15,ESE,113,3.1,4.7,23,0.00,,,0.00,WUHU216HW,2013-02-28 07:10:00,
2013-02-28 00:15:00,45.7,9.7,30.15,ESE,113,1.6,4.0,23,0.00,,,0.00,WUHU216HW,2013-02-28 07:15:00,
2013-02-28 00:20:00,45.5,9.5,30.15,North,0,0.9,4.0,23,0.00,,,0.00,WUHU216HW,2013-02-28 07:20:00,
2013-02-28 00:25:00,45.4,10.4,30.15,East,90,1.6,1.8,24,0.00,,,0.00,WUHU216HW,2013-02-28 07:25:00,
2013-02-28 00:30:00,45.2,10.2,30.15,ESE,113,2.5,3.8,24,0.00,,,0.00,WUHU216HW,2013-02-28 07:30:00,
2013-02-28 00:35:00,44.8,9.9,30.15,East,90,3.8,3.8,24,0.00,,,0.00,WUHU216HW,2013-02-28 07:35:00,
2013-02-28 00:40:00,44.3,10.3,30.15,East,90,1.6,4.3,25,0.00,,,0.00,WUHU216HW,2013-02-28 07:40:00,
2013-02-28 00:45:00,43.9,10.0,30.15,ESE,113,2.7,4.3,25,0.00,,,0.00,WUHU216HW,2013-02-28 07:45:00,
2013-02-28 00:50:00,43.6,9.6,30.15,East,90,5.1,6.9,25,0.00,,,0.00,WUHU216HW,2013-02-28 07:50:00,
2013-02-28 00:55:00,43.4,10.4,30.15,East,90,4.3,6.9,26,0.00,,,0.00,WUHU216HW,2013-02-28 07:55:00,
2013-02-28 01:00:00,43.2,11.2,30.15,ENE,68,5.1,6.0,27,0.00,,,0.00,WUHU216HW,2013-02-28 08:00:00,
2013-02-28 01:05:00,43.0,11.0,30.15,East,90,6.0,6.5,27,0.00,,,0.00,WUHU216HW,2013-02-28 08:05:00,
2013-02-28 01:10:00,42.8,10.8,30.15,ESE,113,4.7,6.7,27,0.00,,,0.00,WUHU216HW,2013-02-28 08:10:00,
2013-02-28 01:15:00,42.8,11.7,30.14,East,90,4.0,6.9,28,0.00,,,0.00,WUHU216HW,2013-02-28 08:15:00,
2013-02-28 01:20:00,42.7,11.5,30.14,East,90,3.4,6.9,28,0.00,,,0.00,WUHU216HW,2013-02-28 08:20:00,
2013-02-28 01:25:00,42.3,11.3,30.15,ESE,113,1.1,4.9,28,0.00,,,0.00,WUHU216HW,2013-02-28 08:25:00,
2013-02-28 01:30:00,42.1,11.2,30.14,North,0,1.3,4.5,28,0.00,,,0.00,WUHU216HW,2013-02-28 08:30:00,
2013-02-28 01:35:00,42.1,12.1,30.14,East,90,2.2,3.4,29,0.00,,,0.00,WUHU216HW,2013-02-28 08:35:00,
2013-02-28 01:40:00,42.3,11.3,30.14,ENE,68,0.4,3.4,28,0.00,,,0.00,WUHU216HW,2013-02-28 08:40:00,
2013-02-28 01:45:00,42.1,11.2,30.15,SE,135,1.6,2.9,28,0.00,,,0.00,WUHU216HW,2013-02-28 08:45:00,
2013-02-28 01:50:00,41.9,11.0,30.15,East,90,1.1,2.9,28,0.00,,,0.00,WUHU216HW,2013-02-28 08:50:00,
2013-02-28 01:55:00,41.8,11.7,30.14,ENE,68,1.1,1.6,29,0.00,,,0.00,WUHU216HW,2013-02-28 08:55:00,
2013-02-28 02:00:00,41.4,11.4,30.14,ESE,113,1.8,2.2,29,0.00,,,0.00,WUHU216HW,2013-02-28 09:00:00,
2013-02-28 02:05:00,41.4,11.4,30.14,ENE,68,1.1,2.7,29,0.00,,,0.00,WUHU216HW,2013-02-28 09:05:00,
2013-02-28 02:10:00,41.2,11.4,30.14,NE,45,2.2,2.9,29,0.00,,,0.00,WUHU216HW,2013-02-28 09:10:00,
2013-02-28 02:15:00,41.4,11.4,30.14,ENE,68,1.3,2.9,29,0.00,,,0.00,WUHU216HW,2013-02-28 09:15:00,
2013-02-28 02:20:00,41.4,11.4,30.13,NE,45,1.6,2.5,29,0.00,,,0.00,WUHU216HW,2013-02-28 09:20:00,
2013-02-28 02:25:00,41.6,11.6,30.14,NNW,338,0.9,2.5,29,0.00,,,0.00,WUHU216HW,2013-02-28 09:25:00,
2013-02-28 02:30:00,41.6,11.6,30.14,WSW,248,1.6,1.8,29,0.00,,,0.00,WUHU216HW,2013-02-28 09:30:00,
2013-02-28 02:35:00,41.6,11.6,30.14,WSW,248,2.5,3.1,29,0.00,,,0.00,WUHU216HW,2013-02-28 09:35:00,
2013-02-28 02:40:00,41.9,11.9,30.14,NW,315,2.5,3.4,29,0.00,,,0.00,WUHU216HW,2013-02-28 09:40:00,
2013-02-28 02:45:00,42.3,12.2,30.15,North,0,1.1,3.4,29,0.00,,,0.00,WUHU216HW,2013-02-28 09:45:00,
2013-02-28 02:50:00,42.5,11.4,30.15,East,90,1.3,3.1,28,0.00,,,0.00,WUHU216HW,2013-02-28 09:50:00,
2013-02-28 02:55:00,42.3,12.2,30.15,ENE,68,1.8,2.2,29,0.00,,,0.00,WUHU216HW,2013-02-28 09:55:00,
2013-02-28 03:00:00,41.9,11.9,30.15,ENE,68,1.3,2.2,29,0.00,,,0.00,WUHU216HW,2013-02-28 10:00:00,
2013-02-28 03:05:00,41.4,11.4,30.15,ESE,113,0.4,1.8,29,0.00,,,0.00,WUHU216HW,2013-02-28 10:05:00,
2013-02-28 03:10:00,41.0,11.2,30.15,East,90,1.1,1.6,29,0.00,,,0.00,WUHU216HW,2013-02-28 10:10:00,
2013-02-28 03:15:00,40.7,10.8,30.15,ESE,113,1.6,2.5,29,0.00,,,0.00,WUHU216HW,2013-02-28 10:15:00,
2013-02-28 03:20:00,40.3,10.5,30.15,ENE,68,2.9,2.9,29,0.00,,,0.00,WUHU216HW,2013-02-28 10:20:00,
2013-02-28 03:25:00,40.3,11.4,30.14,ENE,68,3.6,3.6,30,0.00,,,0.00,WUHU216HW,2013-02-28 10:25:00,
2013-02-28 03:30:00,40.5,11.6,30.14,ENE,68,3.6,4.0,30,0.00,,,0.00,WUHU216HW,2013-02-28 10:30:00,
2013-02-28 03:35:00,40.5,11.6,30.14,ENE,68,3.8,4.0,30,0.00,,,0.00,WUHU216HW,2013-02-28 10:35:00,
2013-02-28 03:40:00,40.1,11.3,30.14,ENE,68,3.4,4.0,30,0.00,,,0.00,WUHU216HW,2013-02-28 10:40:00,
2013-02-28 03:45:00,40.0,11.1,30.14,East,90,3.1,3.8,30,0.00,,,0.00,WUHU216HW,2013-02-28 10:45:00,
2013-02-28 03:50:00,39.6,10.8,30.14,East,90,2.0,3.6,30,0.00,,,0.00,WUHU216HW,2013-02-28 10:50:00,
2013-02-28 03:55:00,39.6,11.4,30.14,ESE,113,2.0,3.1,31,0.00,,,0.00,WUHU216HW,2013-02-28 10:55:00,
2013-02-28 04:00:00,39.4,11.3,30.13,ENE,68,3.8,3.8,31,0.00,,,0.00,WUHU216HW,2013-02-28 11:00:00,
2013-02-28 04:05:00,39.4,11.3,30.13,East,90,4.3,4.3,31,0.00,,,0.00,WUHU216HW,2013-02-28 11:05:00,
2013-02-28 04:10:00,39.4,11.3,30.13,ESE,113,3.1,4.7,31,0.00,,,0.00,WUHU216HW,2013-02-28 11:10:00,
2013-02-28 04:15:00,39.2,11.1,30.13,ENE,68,2.5,4.7,31,0.00,,,0.00,WUHU216HW,2013-02-28 11:15:00,
2013-02-28 04:20:00,39.2,11.1,30.13,East,90,2.0,3.8,31,0.00,,,0.00,WUHU216HW,2013-02-28 11:20:00,
2013-02-28 04:25:00,39.2,11.1,30.13,East,90,1.1,3.4,31,0.00,,,0.00,WUHU216HW,2013-02-28 11:25:00,
2013-02-28 04:30:00,39.2,11.1,30.14,NNW,338,2.5,2.7,31,0.00,,,0.00,WUHU216HW,2013-02-28 11:30:00,
2013-02-28 04:35:00,39.4,11.9,30.14,WNW,293,2.7,3.4,32,0.00,,,0.00,WUHU216HW,2013-02-28 11:35:00,
2013-02-28 04:40:00,39.8,12.3,30.15,NW,315,3.8,4.0,32,0.00,,,0.00,WUHU216HW,2013-02-28 11:40:00,
2013-02-28 04:45:00,40.0,11.7,30.15,NNW,338,2.5,4.0,31,0.00,,,0.00,WUHU216HW,2013-02-28 11:45:00,
2013-02-28 04:50:00,40.0,11.7,30.16,NNW,338,1.8,4.0,31,0.00,,,0.00,WUHU216HW,2013-02-28 11:50:00,
2013-02-28 04:55:00,40.0,11.7,30.16,North,0,1.8,3.6,31,0.00,,,0.00,WUHU216HW,2013-02-28 11:55:00,
2013-02-28 05:00:00,40.0,11.7,30.16,North,0,0.4,2.5,31,0.00,,,0.00,WUHU216HW,2013-02-28 12:00:00,
2013-02-28 05:05:00,39.8,11.6,30.16,NW,315,0.0,1.8,31,0.00,,,0.00,WUHU216HW,2013-02-28 12:05:00,
2013-02-28 05:10:00,39.4,11.3,30.16,WNW,293,0.0,0.4,31,0.00,,,0.00,WUHU216HW,2013-02-28 12:10:00,
2013-02-28 05:15:00,39.2,11.1,30.16,SW,225,0.9,0.9,31,0.00,,,0.00,WUHU216HW,2013-02-28 12:15:00,
2013-02-28 05:20:00,38.9,10.8,30.16,SW,225,1.1,1.8,31,0.00,,,0.00,WUHU216HW,2013-02-28 12:20:00,
2013-02-28 05:25:00,38.5,11.1,30.16,ESE,113,0.0,1.8,32,0.00,,,0.00,WUHU216HW,2013-02-28 12:25:00,
2013-02-28 05:30:00,38.5,11.1,30.16,SSE,158,1.3,1.3,32,0.00,,,0.00,WUHU216HW,2013-02-28 12:30:00,
2013-02-28 05:35:00,38.2,10.8,30.16,SE,135,0.9,1.8,32,0.00,,,0.00,WUHU216HW,2013-02-28 12:35:00,
2013-02-28 05:40:00,38.0,10.6,30.16,East,90,1.1,1.8,32,0.00,,,0.00,WUHU216HW,2013-02-28 12:40:00,
2013-02-28 05:45:00,37.8,11.1,30.16,East,90,1.8,1.8,33,0.00,,,0.00,WUHU216HW,2013-02-28 12:45:00,
2013-02-28 05:50:00,37.8,11.1,30.16,East,90,0.9,2.5,33,0.00,,,0.00,WUHU216HW,2013-02-28 12:50:00,
2013-02-28 05:55:00,37.8,11.1,30.16,East,90,1.1,2.5,33,0.00,,,0.00,WUHU216HW,2013-02-28 12:55:00,
2013-02-28 06:00:00,37.8,11.1,30.16,ENE,68,1.8,2.0,33,0.00,,,0.00,WUHU216HW,2013-02-28 13:00:00,
2013-02-28 06:05:00,37.8,11.1,30.16,NE,45,1.8,2.0,33,0.00,,,0.00,WUHU216HW,2013-02-28 13:05:00,
2013-02-28 06:10:00,38.0,11.3,30.17,SSW,203,0.4,2.5,33,0.00,,,0.00,WUHU216HW,2013-02-28 13:10:00,
2013-02-28 06:15:00,38.0,11.3,30.17,WSW,248,0.7,2.5,33,0.00,,,0.00,WUHU216HW,2013-02-28 13:15:00,
2013-02-28 06:20:00,37.8,11.1,30.16,NNW,338,0.0,1.1,33,0.00,,,0.00,WUHU216HW,2013-02-28 13:20:00,
2013-02-28 06:25:00,37.8,11.1,30.17,SW,225,1.3,2.5,33,0.00,,,0.00,WUHU216HW,2013-02-28 13:25:00,
2013-02-28 06:30:00,37.6,10.9,30.17,South,180,1.1,2.5,33,0.00,,,0.00,WUHU216HW,2013-02-28 13:30:00,
2013-02-28 06:35:00,37.4,10.8,30.17,SSE,158,0.0,1.8,33,0.00,,,0.00,WUHU216HW,2013-02-28 13:35:00,
2013-02-28 06:40:00,37.1,11.1,30.17,East,90,0.2,1.1,34,0.00,,,0.00,WUHU216HW,2013-02-28 13:40:00,
2013-02-28 06:45:00,37.1,11.7,30.17,North,0,1.3,1.8,35,0.00,,,0.00,WUHU216HW,2013-02-28 13:45:00,
2013-02-28 06:50:00,36.9,11.6,30.17,NNW,338,1.3,1.8,35,0.00,,,0.00,WUHU216HW,2013-02-28 13:50:00,
2013-02-28 06:55:00,37.1,11.7,30.18,NW,315,0.0,1.8,35,0.00,,,0.00,WUHU216HW,2013-02-28 13:55:00,
2013-02-28 07:00:00,37.1,11.7,30.18,SW,225,1.3,1.6,35,0.00,,,0.00,WUHU216HW,2013-02-28 14:00:00,
2013-02-28 07:05:00,36.9,12.3,30.19,South,180,1.1,1.8,36,0.00,,,0.00,WUHU216HW,2013-02-28 14:05:00,
2013-02-28 07:10:00,36.7,12.1,30.20,SSW,203,0.0,1.8,36,0.00,,,0.00,WUHU216HW,2013-02-28 14:10:00,
2013-02-28 07:15:00,36.5,11.9,30.20,East,90,1.6,1.6,36,0.00,,,0.00,WUHU216HW,2013-02-28 14:15:00,
2013-02-28 07:20:00,36.7,12.1,30.20,ESE,113,1.6,2.2,36,0.00,,,0.00,WUHU216HW,2013-02-28 14:20:00,
2013-02-28 07:25:00,36.7,12.1,30.20,ESE,113,2.0,2.5,36,0.00,,,0.00,WUHU216HW,2013-02-28 14:25:00,
2013-02-28 07:30:00,36.9,12.3,30.20,WSW,248,0.0,2.5,36,0.00,,,0.00,WUHU216HW,2013-02-28 14:30:00,
2013-02-28 07:35:00,36.9,12.3,30.20,ESE,113,1.3,2.0,36,0.00,,,0.00,WUHU216HW,2013-02-28 14:35:00,
2013-02-28 07:40:00,36.9,12.9,30.20,ESE,113,1.1,1.8,37,0.00,,,0.00,WUHU216HW,2013-02-28 14:40:00,
2013-02-28 07:45:00,37.1,13.1,30.21,East,90,1.8,2.7,37,0.00,,,0.00,WUHU216HW,2013-02-28 14:45:00,
2013-02-28 07:50:00,37.1,13.1,30.21,East,90,2.9,2.9,37,0.00,,,0.00,WUHU216HW,2013-02-28 14:50:00,
2013-02-28 07:55:00,37.1,13.1,30.21,SE,135,1.8,3.6,37,0.00,,,0.00,WUHU216HW,2013-02-28 14:55:00,
2013-02-28 08:00:00,37.4,13.3,30.21,SE,135,1.8,4.0,37,0.00,,,0.00,WUHU216HW,2013-02-28 15:00:00,
2013-02-28 08:05:00,37.8,13.7,30.21,East,90,2.5,4.3,37,0.00,,,0.00,WUHU216HW,2013-02-28 15:05:00,
2013-02-28 08:10:00,38.0,14.5,30.21,ESE,113,2.5,4.7,38,0.00,,,0.00,WUHU216HW,2013-02-28 15:10:00,
2013-02-28 08:15:00,38.3,14.9,30.22,ESE,113,4.3,4.7,38,0.00,,,0.00,WUHU216HW,2013-02-28 15:15:00,
2013-02-28 08:20:00,38.5,14.9,30.22,East,90,3.6,5.4,38,0.00,,,0.00,WUHU216HW,2013-02-28 15:20:00,
2013-02-28 08:25:00,39.2,14.9,30.22,ENE,68,2.5,5.4,37,0.00,,,0.00,WUHU216HW,2013-02-28 15:25:00,
2013-02-28 08:30:00,39.6,15.3,30.22,East,90,3.4,4.3,37,0.00,,,0.00,WUHU216HW,2013-02-28 15:30:00,
2013-02-28 08:35:00,40.1,15.8,30.22,East,90,3.4,4.3,37,0.00,,,0.00,WUHU216HW,2013-02-28 15:35:00,
2013-02-28 08:40:00,40.5,16.1,30.22,East,90,1.8,4.0,37,0.00,,,0.00,WUHU216HW,2013-02-28 15:40:00,
2013-02-28 08:45:00,41.0,15.9,30.22,ESE,113,1.1,4.3,36,0.00,,,0.00,WUHU216HW,2013-02-28 15:45:00,
2013-02-28 08:50:00,41.4,15.6,30.22,SE,135,2.5,4.3,35,0.00,,,0.00,WUHU216HW,2013-02-28 15:50:00,
2013-02-28 08:55:00,41.8,15.9,30.22,SSE,158,3.1,3.6,35,0.00,,,0.00,WUHU216HW,2013-02-28 15:55:00,
2013-02-28 09:00:00,41.9,16.0,30.22,East,90,3.1,3.4,35,0.00,,,0.00,WUHU216HW,2013-02-28 16:00:00,
2013-02-28 09:05:00,42.3,16.4,30.22,SSE,158,2.2,4.0,35,0.00,,,0.00,WUHU216HW,2013-02-28 16:05:00,
2013-02-28 09:10:00,42.5,16.6,30.22,SSE,158,2.0,4.7,35,0.00,,,0.00,WUHU216HW,2013-02-28 16:10:00,
2013-02-28 09:15:00,42.8,16.8,30.22,ESE,113,1.3,4.7,35,0.00,,,0.00,WUHU216HW,2013-02-28 16:15:00,
2013-02-28 09:20:00,43.2,16.5,30.22,SSW,203,3.8,4.7,34,0.00,,,0.00,WUHU216HW,2013-02-28 16:20:00,
2013-02-28 09:25:00,43.6,16.1,30.23,South,180,1.1,4.7,33,0.00,,,0.00,WUHU216HW,2013-02-28 16:25:00,
2013-02-28 09:30:00,43.7,16.3,30.23,South,180,3.4,4.5,33,0.00,,,0.00,WUHU216HW,2013-02-28 16:30:00,
2013-02-28 09:35:00,43.9,16.5,30.23,SE,135,2.7,4.3,33,0.00,,,0.00,WUHU216HW,2013-02-28 16:35:00,
2013-02-28 09:40:00,44.1,16.7,30.23,South,180,2.7,3.4,33,0.00,,,0.00,WUHU216HW,2013-02-28 16:40:00,
2013-02-28 09:45:00,44.6,16.5,30.24,South,180,2.0,4.0,32,0.00,,,0.00,WUHU216HW,2013-02-28 16:45:00,
2013-02-28 09:50:00,45.0,16.7,30.24,NNW,338,0.9,4.0,32,0.00,,,0.00,WUHU216HW,2013-02-28 16:50:00,
2013-02-28 09:55:00,45.7,17.5,30.24,South,180,4.5,4.5,32,0.00,,,0.00,WUHU216HW,2013-02-28 16:55:00,
2013-02-28 10:00:00,46.3,17.3,30.24,WSW,248,1.8,4.5,31,0.00,,,0.00,WUHU216HW,2013-02-28 17:00:00,
2013-02-28 10:05:00,46.8,17.1,30.24,NNW,338,1.8,4.5,30,0.00,,,0.00,WUHU216HW,2013-02-28 17:05:00,
2013-02-28 10:10:00,47.0,17.2,30.24,SE,135,2.0,3.4,30,0.00,,,0.00,WUHU216HW,2013-02-28 17:10:00,
2013-02-28 10:15:00,47.2,18.1,30.24,SE,135,1.1,4.0,31,0.00,,,0.00,WUHU216HW,2013-02-28 17:15:00,
2013-02-28 10:20:00,47.3,17.6,30.23,ESE,113,1.1,4.0,30,0.00,,,0.00,WUHU216HW,2013-02-28 17:20:00,
2013-02-28 10:25:00,47.7,17.9,30.23,SSW,203,2.2,4.3,30,0.00,,,0.00,WUHU216HW,2013-02-28 17:25:00,
2013-02-28 10:30:00,47.9,18.0,30.23,SE,135,2.0,4.3,30,0.00,,,0.00,WUHU216HW,2013-02-28 17:30:00,
2013-02-28 10:35:00,48.4,17.6,30.23,SSW,203,1.8,3.4,29,0.00,,,0.00,WUHU216HW,2013-02-28 17:35:00,
2013-02-28 10:40:00,49.0,17.1,30.23,NW,315,2.5,4.7,28,0.00,,,0.00,WUHU216HW,2013-02-28 17:40:00,
2013-02-28 10:45:00,49.3,17.4,30.23,SW,225,2.9,4.7,28,0.00,,,0.00,WUHU216HW,2013-02-28 17:45:00,
2013-02-28 10:50:00,49.9,16.9,30.23,WSW,248,2.7,4.7,27,0.00,,,0.00,WUHU216HW,2013-02-28 17:50:00,
2013-02-28 10:55:00,50.2,17.2,30.22,West,270,1.6,4.7,27,0.00,,,0.00,WUHU216HW,2013-02-28 17:55:00,
2013-02-28 11:00:00,50.8,17.6,30.22,SW,225,2.5,4.0,27,0.00,,,0.00,WUHU216HW,2013-02-28 18:00:00,
2013-02-28 11:05:00,51.1,18.0,30.22,SW,225,2.7,4.7,27,0.00,,,0.00,WUHU216HW,2013-02-28 18:05:00,
2013-02-28 11:10:00,51.3,18.2,30.22,South,180,1.8,4.7,27,0.00,,,0.00,WUHU216HW,2013-02-28 18:10:00,
2013-02-28 11:15:00,51.8,18.6,30.22,SSE,158,1.1,4.5,27,0.00,,,0.00,WUHU216HW,2013-02-28 18:15:00,
2013-02-28 11:20:00,51.8,18.6,30.21,ESE,113,1.6,4.5,27,0.00,,,0.00,WUHU216HW,2013-02-28 18:20:00,
2013-02-28 11:25:00,52.2,18.9,30.21,SSW,203,4.7,5.1,27,0.00,,,0.00,WUHU216HW,2013-02-28 18:25:00,
2013-02-28 11:30:00,52.6,19.3,30.21,SW,225,4.7,5.1,27,0.00,,,0.00,WUHU216HW,2013-02-28 18:30:00,
2013-02-28 11:35:00,53.1,17.8,30.21,WSW,248,2.7,4.7,25,0.00,,,0.00,WUHU216HW,2013-02-28 18:35:00,
2013-02-28 11:40:00,53.3,17.0,30.21,WNW,293,3.1,4.7,24,0.00,,,0.00,WUHU216HW,2013-02-28 18:40:00,
2013-02-28 11:45:00,53.3,17.0,30.21,WNW,293,2.5,5.4,24,0.00,,,0.00,WUHU216HW,2013-02-28 18:45:00,
2013-02-28 11:50:00,53.6,17.3,30.21,WSW,248,3.8,5.4,24,0.00,,,0.00,WUHU216HW,2013-02-28 18:50:00,
2013-02-28 11:55:00,53.8,16.6,30.21,SW,225,1.8,5.4,23,0.00,,,0.00,WUHU216HW,2013-02-28 18:55:00,
2013-02-28 12:00:00,54.5,17.1,30.21,WSW,248,5.4,6.9,23,0.00,,,0.00,WUHU216HW,2013-02-28 19:00:00,
2013-02-28 12:05:00,54.7,17.3,30.21,WSW,248,3.4,6.9,23,0.00,,,0.00,WUHU216HW,2013-02-28 19:05:00,
2013-02-28 12:10:00,55.1,17.7,30.21,NW,315,3.8,5.8,23,0.00,,,0.00,WUHU216HW,2013-02-28 19:10:00,
2013-02-28 12:15:00,55.4,17.9,30.21,West,270,1.8,5.4,23,0.00,,,0.00,WUHU216HW,2013-02-28 19:15:00,
2013-02-28 12:20:00,55.8,17.3,30.20,SW,225,1.6,6.9,22,0.00,,,0.00,WUHU216HW,2013-02-28 19:20:00,
2013-02-28 12:25:00,56.2,16.7,30.20,NW,315,2.0,6.9,21,0.00,,,0.00,WUHU216HW,2013-02-28 19:25:00,
2013-02-28 12:30:00,56.2,17.6,30.20,WSW,248,4.5,4.7,22,0.00,,,0.00,WUHU216HW,2013-02-28 19:30:00,
2013-02-28 12:35:00,56.7,17.1,30.20,WSW,248,5.4,6.0,21,0.00,,,0.00,WUHU216HW,2013-02-28 19:35:00,
2013-02-28 12:40:00,57.2,16.6,30.19,NNW,338,2.0,6.0,20,0.00,,,0.00,WUHU216HW,2013-02-28 19:40:00,
2013-02-28 12:45:00,57.6,16.8,30.19,WSW,248,2.7,6.0,20,0.00,,,0.00,WUHU216HW,2013-02-28 19:45:00,
2013-02-28 12:50:00,58.1,17.3,30.19,WSW,248,5.1,6.0,20,0.00,,,0.00,WUHU216HW,2013-02-28 19:50:00,
2013-02-28 12:55:00,58.5,14.5,30.19,ENE,68,0.7,7.6,18,0.00,,,0.00,WUHU216HW,2013-02-28 19:55:00,
2013-02-28 13:00:00,58.7,17.7,30.18,WSW,248,5.4,7.6,20,0.00,,,0.00,WUHU216HW,2013-02-28 20:00:00,
2013-02-28 13:05:00,59.0,16.5,30.18,ENE,68,1.6,7.6,19,0.00,,,0.00,WUHU216HW,2013-02-28 20:05:00,
2013-02-28 13:10:00,59.2,19.2,30.18,South,180,2.9,6.3,21,0.00,,,0.00,WUHU216HW,2013-02-28 20:10:00,
2013-02-28 13:15:00,59.9,19.8,30.18,SSW,203,2.5,6.9,21,0.00,,,0.00,WUHU216HW,2013-02-28 20:15:00,
2013-02-28 13:20:00,60.3,19.2,30.18,NW,315,2.9,6.9,20,0.00,,,0.00,WUHU216HW,2013-02-28 20:20:00,
2013-02-28 13:25:00,60.8,20.6,30.17,SSW,203,3.1,5.4,21,0.00,,,0.00,WUHU216HW,2013-02-28 20:25:00,
2013-02-28 13:30:00,61.4,16.9,30.17,SW,225,2.7,6.9,18,0.00,,,0.00,WUHU216HW,2013-02-28 20:30:00,
2013-02-28 13:35:00,61.2,18.4,30.17,NNW,338,3.1,6.9,19,0.00,,,0.00,WUHU216HW,2013-02-28 20:35:00,
2013-02-28 13:40:00,61.2,16.7,30.17,WSW,248,7.8,7.8,18,0.00,,,0.00,WUHU216HW,2013-02-28 20:40:00,
2013-02-28 13:45:00,61.2,16.7,30.17,WSW,248,7.6,7.8,18,0.00,,,0.00,WUHU216HW,2013-02-28 20:45:00,
2013-02-28 13:50:00,61.7,17.2,30.17,NW,315,3.8,8.1,18,0.00,,,0.00,WUHU216HW,2013-02-28 20:50:00,
2013-02-28 13:55:00,62.3,19.2,30.17,NW,315,2.5,8.1,19,0.00,,,0.00,WUHU216HW,2013-02-28 20:55:00,
2013-02-28 14:00:00,62.5,17.8,30.17,SW,225,3.1,6.9,18,0.00,,,0.00,WUHU216HW,2013-02-28 21:00:00,
2013-02-28 14:05:00,62.8,19.6,30.17,WSW,248,6.5,8.5,19,0.00,,,0.00,WUHU216HW,2013-02-28 21:05:00,
2013-02-28 14:10:00,63.0,18.2,30.17,West,270,4.7,8.7,18,0.00,,,0.00,WUHU216HW,2013-02-28 21:10:00,
2013-02-28 14:15:00,63.2,18.4,30.17,West,270,2.9,8.9,18,0.00,,,0.00,WUHU216HW,2013-02-28 21:15:00,
2013-02-28 14:20:00,63.2,16.7,30.17,West,270,6.9,8.9,17,0.00,,,0.00,WUHU216HW,2013-02-28 21:20:00,
2013-02-28 14:25:00,63.2,16.7,30.17,West,270,7.6,10.7,17,0.00,,,0.00,WUHU216HW,2013-02-28 21:25:00,
2013-02-28 14:30:00,63.4,16.9,30.17,NW,315,6.9,11.4,17,0.00,,,0.00,WUHU216HW,2013-02-28 21:30:00,
2013-02-28 14:35:00,63.5,17.0,30.17,NW,315,6.3,11.4,17,0.00,,,0.00,WUHU216HW,2013-02-28 21:35:00,
2013-02-28 14:40:00,64.3,17.7,30.17,West,270,9.2,9.4,17,0.00,,,0.00,WUHU216HW,2013-02-28 21:40:00,
2013-02-28 14:45:00,64.4,17.7,30.16,NW,315,6.3,9.4,17,0.00,,,0.00,WUHU216HW,2013-02-28 21:45:00,
2013-02-28 14:50:00,64.8,19.6,30.16,West,270,11.9,11.9,18,0.00,,,0.00,WUHU216HW,2013-02-28 21:50:00,
2013-02-28 14:55:00,65.2,18.4,30.17,NNW,338,4.3,12.8,17,0.00,,,0.00,WUHU216HW,2013-02-28 21:55:00,
2013-02-28 15:00:00,65.0,16.6,30.17,West,270,8.3,12.8,16,0.00,,,0.00,WUHU216HW,2013-02-28 22:00:00,
2013-02-28 15:05:00,65.2,16.7,30.16,NW,315,6.5,10.5,16,0.00,,,0.00,WUHU216HW,2013-02-28 22:05:00,
2013-02-28 15:10:00,65.5,18.6,30.17,NW,315,6.5,10.5,17,0.00,,,0.00,WUHU216HW,2013-02-28 22:10:00,
2013-02-28 15:15:00,65.5,17.0,30.17,WNW,293,9.8,10.5,16,0.00,,,0.00,WUHU216HW,2013-02-28 22:15:00,
2013-02-28 15:20:00,65.3,16.9,30.17,NNW,338,8.3,12.1,16,0.00,,,0.00,WUHU216HW,2013-02-28 22:20:00,
2013-02-28 15:25:00,65.5,18.6,30.17,West,270,9.8,12.1,17,0.00,,,0.00,WUHU216HW,2013-02-28 22:25:00,
2013-02-28 15:30:00,65.3,16.9,30.17,WSW,248,8.5,10.5,16,0.00,,,0.00,WUHU216HW,2013-02-28 22:30:00,
2013-02-28 15:35:00,65.5,18.6,30.17,West,270,8.1,10.5,17,0.00,,,0.00,WUHU216HW,2013-02-28 22:35:00,
2013-02-28 15:40:00,65.5,18.6,30.17,West,270,6.9,12.1,17,0.00,,,0.00,WUHU216HW,2013-02-28 22:40:00,
2013-02-28 15:45:00,65.2,16.7,30.17,WNW,293,6.5,12.1,16,0.00,,,0.00,WUHU216HW,2013-02-28 22:45:00,
2013-02-28 15:50:00,65.2,16.7,30.18,WSW,248,9.8,11.9,16,0.00,,,0.00,WUHU216HW,2013-02-28 22:50:00,
2013-02-28 15:55:00,65.3,18.5,30.18,West,270,3.8,11.4,17,0.00,,,0.00,WUHU216HW,2013-02-28 22:55:00,
2013-02-28 16:00:00,65.7,18.7,30.17,NW,315,4.3,11.4,17,0.00,,,0.00,WUHU216HW,2013-02-28 23:00:00,
2013-02-28 16:05:00,65.9,17.3,30.17,West,270,11.4,11.4,16,0.00,,,0.00,WUHU216HW,2013-02-28 23:05:00,
2013-02-28 16:10:00,65.5,17.0,30.17,NW,315,4.5,12.8,16,0.00,,,0.00,WUHU216HW,2013-02-28 23:10:00,
2013-02-28 16:15:00,65.7,17.2,30.17,WNW,293,5.4,12.8,16,0.00,,,0.00,WUHU216HW,2013-02-28 23:15:00,
2013-02-28 16:20:00,65.7,17.2,30.17,West,270,6.5,9.2,16,0.00,,,0.00,WUHU216HW,2013-02-28 23:20:00,
2013-02-28 16:25:00,66.1,19.1,30.17,WNW,293,4.0,9.2,17,0.00,,,0.00,WUHU216HW,2013-02-28 23:25:00,
2013-02-28 16:30:00,66.2,17.7,30.17,WNW,293,7.2,10.5,16,0.00,,,0.00,WUHU216HW,2013-02-28 23:30:00,
2013-02-28 16:35:00,66.2,17.7,30.17,WNW,293,5.1,10.5,16,0.00,,,0.00,WUHU216HW,2013-02-28 23:35:00,
2013-02-28 16:40:00,66.4,17.7,30.17,West,270,4.0,9.4,16,0.00,,,0.00,WUHU216HW,2013-02-28 23:40:00,
2013-02-28 16:45:00,66.6,17.9,30.17,WNW,293,4.7,9.2,16,0.00,,,0.00,WUHU216HW,2013-02-28 23:45:00,
2013-02-28 16:50:00,66.6,17.9,30.17,WNW,293,5.4,9.2,16,0.00,,,0.00,WUHU216HW,2013-02-28 23:50:00,
2013-02-28 16:55:00,66.8,18.1,30.17,WNW,293,4.7,8.7,16,0.00,,,0.00,WUHU216HW,2013-02-28 23:55:00,
2013-02-28 17:00:00,66.8,18.1,30.17,NW,315,3.8,6.7,16,0.00,,,0.00,WUHU216HW,2013-03-01 00:00:00,
2013-02-28 17:05:00,66.8,18.1,30.17,NNW,338,6.3,6.3,16,0.00,,,0.00,WUHU216HW,2013-03-01 00:05:00,
2013-02-28 17:10:00,67.0,18.2,30.17,WNW,293,5.4,6.7,16,0.00,,,0.00,WUHU216HW,2013-03-01 00:10:00,
2013-02-28 17:15:00,67.0,16.7,30.17,WNW,293,4.7,6.7,15,0.00,,,0.00,WUHU216HW,2013-03-01 00:15:00,
2013-02-28 17:20:00,66.8,16.5,30.17,West,270,5.1,9.6,15,0.00,,,0.00,WUHU216HW,2013-03-01 00:20:00,
2013-02-28 17:25:00,66.6,13.1,30.17,WNW,293,11.4,13.0,13,0.00,,,0.00,WUHU216HW,2013-03-01 00:25:00,
2013-02-28 17:30:00,65.9,14.1,30.17,West,270,3.4,13.0,14,0.00,,,0.00,WUHU216HW,2013-03-01 00:30:00,
2013-02-28 17:35:00,65.7,15.6,30.17,West,270,4.0,11.4,15,0.00,,,0.00,WUHU216HW,2013-03-01 00:35:00,
2013-02-28 17:40:00,65.5,15.5,30.17,WNW,293,5.6,8.7,15,0.00,,,0.00,WUHU216HW,2013-03-01 00:40:00,
2013-02-28 17:45:00,65.2,15.1,30.17,SW,225,4.0,9.4,15,0.00,,,0.00,WUHU216HW,2013-03-01 00:45:00,
2013-02-28 17:50:00,65.0,15.0,30.17,North,0,4.7,9.4,15,0.00,,,0.00,WUHU216HW,2013-03-01 00:50:00,
2013-02-28 17:55:00,64.4,16.2,30.17,NNW,338,2.5,6.3,16,0.00,,,0.00,WUHU216HW,2013-03-01 00:55:00,
2013-02-28 18:00:00,64.1,15.9,30.18,NNW,338,2.9,6.3,16,0.00,,,0.00,WUHU216HW,2013-03-01 01:00:00,
2013-02-28 18:05:00,63.7,15.7,30.18,NNW,338,2.5,5.1,16,0.00,,,0.00,WUHU216HW,2013-03-01 01:05:00,
2013-02-28 18:10:00,63.2,15.2,30.19,North,0,3.6,5.1,16,0.00,,,0.00,WUHU216HW,2013-03-01 01:10:00,
2013-02-28 18:15:00,62.8,15.0,30.18,NNW,338,7.6,8.9,16,0.00,,,0.00,WUHU216HW,2013-03-01 01:15:00,
2013-02-28 18:20:00,62.6,14.8,30.18,NNW,338,6.3,9.8,16,0.00,,,0.00,WUHU216HW,2013-03-01 01:20:00,
2013-02-28 18:25:00,62.3,13.0,30.18,NNW,338,9.4,10.3,15,0.00,,,0.00,WUHU216HW,2013-03-01 01:25:00,
2013-02-28 18:30:00,61.9,12.7,30.18,NW,315,8.7,13.9,15,0.00,,,0.00,WUHU216HW,2013-03-01 01:30:00,
2013-02-28 18:35:00,61.4,13.8,30.18,North,0,8.9,13.9,16,0.00,,,0.00,WUHU216HW,2013-03-01 01:35:00,
2013-02-28 18:40:00,60.7,13.2,30.18,NNW,338,14.3,14.3,16,0.00,,,0.00,WUHU216HW,2013-03-01 01:40:00,
2013-02-28 18:45:00,60.3,14.5,30.18,NNW,338,11.2,14.3,17,0.00,,,0.00,WUHU216HW,2013-03-01 01:45:00,
2013-02-28 18:50:00,60.1,14.3,30.18,North,0,9.6,14.5,17,0.00,,,0.00,WUHU216HW,2013-03-01 01:50:00,
2013-02-28 18:55:00,59.8,14.0,30.19,North,0,22.4,22.4,17,0.00,,,0.00,WUHU216HW,2013-03-01 01:55:00,
2013-02-28 19:00:00,59.6,13.9,30.19,North,0,9.4,22.4,17,0.00,,,0.00,WUHU216HW,2013-03-01 02:00:00,
2013-02-28 19:05:00,59.4,13.7,30.19,North,0,13.2,22.4,17,0.00,,,0.00,WUHU216HW,2013-03-01 02:05:00,
2013-02-28 19:10:00,59.2,13.5,30.19,NNW,338,15.7,16.8,17,0.00,,,0.00,WUHU216HW,2013-03-01 02:10:00,
2013-02-28 19:15:00,59.0,13.3,30.19,NE,45,12.1,17.0,17,0.00,,,0.00,WUHU216HW,2013-03-01 02:15:00,
2013-02-28 19:20:00,59.0,13.3,30.19,NNE,23,9.4,17.2,17,0.00,,,0.00,WUHU216HW,2013-03-01 02:20:00,
2013-02-28 19:25:00,58.7,13.1,30.20,NNE,23,16.8,22.6,17,0.00,,,0.00,WUHU216HW,2013-03-01 02:25:00,
2013-02-28 19:30:00,58.7,13.1,30.20,NE,45,15.7,22.6,17,0.00,,,0.00,WUHU216HW,2013-03-01 02:30:00,
2013-02-28 19:35:00,58.7,13.1,30.21,NNE,23,8.5,20.1,17,0.00,,,0.00,WUHU216HW,2013-03-01 02:35:00,
2013-02-28 19:40:00,58.7,13.1,30.20,North,0,12.8,21.5,17,0.00,,,0.00,WUHU216HW,2013-03-01 02:40:00,
2013-02-28 19:45:00,58.7,13.1,30.20,North,0,14.3,21.5,17,0.00,,,0.00,WUHU216HW,2013-03-01 02:45:00,
2013-02-28 19:50:00,58.7,13.1,30.20,NNE,23,9.2,20.1,17,0.00,,,0.00,WUHU216HW,2013-03-01 02:50:00,
2013-02-28 19:55:00,58.9,13.2,30.21,North,0,11.2,19.7,17,0.00,,,0.00,WUHU216HW,2013-03-01 02:55:00,
2013-02-28 20:00:00,58.7,13.1,30.21,NNE,23,16.3,18.8,17,0.00,,,0.00,WUHU216HW,2013-03-01 03:00:00,
2013-02-28 20:05:00,58.7,13.1,30.21,North,0,4.9,18.8,17,0.00,,,0.00,WUHU216HW,2013-03-01 03:05:00,
2013-02-28 20:10:00,58.5,13.0,30.21,NNE,23,10.1,16.6,17,0.00,,,0.00,WUHU216HW,2013-03-01 03:10:00,
2013-02-28 20:15:00,58.1,12.6,30.21,North,0,12.5,13.9,17,0.00,,,0.00,WUHU216HW,2013-03-01 03:15:00,
2013-02-28 20:20:00,58.0,12.5,30.21,North,0,6.9,13.9,17,0.00,,,0.00,WUHU216HW,2013-03-01 03:20:00,
2013-02-28 20:25:00,58.0,12.5,30.21,NE,45,6.9,14.3,17,0.00,,,0.00,WUHU216HW,2013-03-01 03:25:00,
2013-02-28 20:30:00,57.8,12.3,30.21,NE,45,12.8,14.5,17,0.00,,,0.00,WUHU216HW,2013-03-01 03:30:00,
2013-02-28 20:35:00,57.8,12.3,30.21,NNE,23,8.7,14.5,17,0.00,,,0.00,WUHU216HW,2013-03-01 03:35:00,
2013-02-28 20:40:00,57.8,12.3,30.21,NNE,23,8.5,15.2,17,0.00,,,0.00,WUHU216HW,2013-03-01 03:40:00,
2013-02-28 20:45:00,57.6,12.3,30.21,NE,45,9.4,15.2,17,0.00,,,0.00,WUHU216HW,2013-03-01 03:45:00,
2013-02-28 20:50:00,57.6,12.3,30.21,North,0,7.6,11.4,17,0.00,,,0.00,WUHU216HW,2013-03-01 03:50:00,
2013-02-28 20:55:00,58.0,12.5,30.21,NE,45,6.0,11.9,17,0.00,,,0.00,WUHU216HW,2013-03-01 03:55:00,
2013-02-28 21:00:00,57.6,12.3,30.22,ENE,68,4.5,11.9,17,0.00,,,0.00,WUHU216HW,2013-03-01 04:00:00,
2013-02-28 21:05:00,57.4,12.1,30.22,NE,45,2.9,8.5,17,0.00,,,0.00,WUHU216HW,2013-03-01 04:05:00,
2013-02-28 21:10:00,57.2,11.9,30.22,NE,45,8.7,8.7,17,0.00,,,0.00,WUHU216HW,2013-03-01 04:10:00,
2013-02-28 21:15:00,57.6,12.3,30.22,NNE,23,3.8,8.7,17,0.00,,,0.00,WUHU216HW,2013-03-01 04:15:00,
2013-02-28 21:20:00,57.6,12.3,30.23,NNE,23,7.6,8.9,17,0.00,,,0.00,WUHU216HW,2013-03-01 04:20:00,
2013-02-28 21:25:00,57.6,12.3,30.23,North,0,3.1,8.9,17,0.00,,,0.00,WUHU216HW,2013-03-01 04:25:00,
2013-02-28 21:30:00,57.4,12.1,30.22,NNW,338,3.1,8.7,17,0.00,,,0.00,WUHU216HW,2013-03-01 04:30:00,
2013-02-28 21:35:00,57.2,11.9,30.22,NW,315,2.0,5.4,17,0.00,,,0.00,WUHU216HW,2013-03-01 04:35:00,
2013-02-28 21:40:00,56.9,11.6,30.23,ESE,113,3.8,5.4,17,0.00,,,0.00,WUHU216HW,2013-03-01 04:40:00,
2013-02-28 21:45:00,56.0,11.0,30.23,SE,135,0.2,3.8,17,0.00,,,0.00,WUHU216HW,2013-03-01 04:45:00,
2013-02-28 21:50:00,55.1,11.7,30.23,East,90,2.0,3.8,18,0.00,,,0.00,WUHU216HW,2013-03-01 04:50:00,
2013-02-28 21:55:00,54.4,11.1,30.24,ENE,68,0.7,2.7,18,0.00,,,0.00,WUHU216HW,2013-03-01 04:55:00,
2013-02-28 22:00:00,54.0,13.9,30.24,SSE,158,1.6,2.9,20,0.00,,,0.00,WUHU216HW,2013-03-01 05:00:00,
2013-02-28 22:05:00,53.5,13.3,30.24,ESE,113,2.5,2.9,20,0.00,,,0.00,WUHU216HW,2013-03-01 05:05:00,
2013-02-28 22:06:00,53.3,13.2,30.24,SE,135,1.8,2.9,20,0.00,,,0.00,WUHU216HW,2013-03-01 05:06:00,
2013-02-28 22:11:00,52.6,13.6,30.24,SE,135,3.4,3.8,21,0.00,,,0.00,WUHU216HW,2013-03-01 05:11:00,
2013-02-28 22:16:00,52.2,13.3,30.24,NNE,23,3.1,4.3,21,0.00,,,0.00,WUHU216HW,2013-03-01 05:16:00,
2013-02-28 22:21:00,52.0,13.1,30.24,North,0,1.6,4.3,21,0.00,,,0.00,WUHU216HW,2013-03-01 05:21:00,
2013-02-28 22:26:00,52.0,14.0,30.24,NE,45,3.4,4.7,22,0.00,,,0.00,WUHU216HW,2013-03-01 05:26:00,
2013-02-28 22:31:00,52.2,14.2,30.24,NE,45,1.6,4.7,22,0.00,,,0.00,WUHU216HW,2013-03-01 05:31:00,
2013-02-28 22:36:00,52.2,14.2,30.24,ENE,68,1.8,3.4,22,0.00,,,0.00,WUHU216HW,2013-03-01 05:36:00,
2013-02-28 22:41:00,52.2,14.2,30.24,ESE,113,0.7,2.5,22,0.00,,,0.00,WUHU216HW,2013-03-01 05:41:00,
2013-02-28 22:46:00,51.8,14.0,30.24,ENE,68,1.8,2.5,22,0.00,,,0.00,WUHU216HW,2013-03-01 05:46:00,
2013-02-28 22:51:00,51.5,13.7,30.24,ENE,68,4.5,4.5,22,0.00,,,0.00,WUHU216HW,2013-03-01 05:51:00,
2013-02-28 22:56:00,51.1,13.3,30.23,ESE,113,4.7,4.7,22,0.00,,,0.00,WUHU216HW,2013-03-01 05:56:00,
2013-02-28 23:01:00,51.1,13.3,30.24,NE,45,3.1,4.9,22,0.00,,,0.00,WUHU216HW,2013-03-01 06:01:00,
2013-02-28 23:06:00,51.1,13.3,30.24,ENE,68,4.0,4.9,22,0.00,,,0.00,WUHU216HW,2013-03-01 06:06:00,
2013-02-28 23:11:00,51.3,13.5,30.24,NE,45,3.4,4.9,22,0.00,,,0.00,WUHU216HW,2013-03-01 06:11:00,
2013-02-28 23:16:00,51.3,13.5,30.24,NE,45,1.8,4.0,22,0.00,,,0.00,WUHU216HW,2013-03-01 06:16:00,
2013-02-28 23:21:00,50.9,13.2,30.25,ENE,68,2.5,3.4,22,0.00,,,0.00,WUHU216HW,2013-03-01 06:21:00,
2013-02-28 23:26:00,50.8,13.1,30.25,West,270,1.1,2.9,22,0.00,,,0.00,WUHU216HW,2013-03-01 06:26:00,
2013-02-28 23:31:00,50.6,13.9,30.25,WNW,293,1.1,2.5,23,0.00,,,0.00,WUHU216HW,2013-03-01 06:31:00,
2013-02-28 23:36:00,50.2,13.5,30.25,West,270,1.1,1.8,23,0.00,,,0.00,WUHU216HW,2013-03-01 06:36:00,
2013-02-28 23:41:00,50.0,13.4,30.26,NW,315,2.2,2.2,23,0.00,,,0.00,WUHU216HW,2013-03-01 06:41:00,
2013-02-28 23:46:00,50.0,13.4,30.26,SE,135,0.7,2.9,23,0.00,,,0.00,WUHU216HW,2013-03-01 06:46:00,
2013-02-28 23:51:00,49.7,13.1,30.26,SSE,158,1.1,2.9,23,0.00,,,0.00,WUHU216HW,2013-03-01 06:51:00,
2013-02-28 23:56:00,49.1,13.5,30.26,ESE,113,2.0,2.9,24,0.00,,,0.00,WUHU216HW,2013-03-01 06:56:00,